Weather History for LGBL - December, 2012

Change the Weather History Date:

Thursday, December 20, 2012

  Actual Average Record
Temperature  
Mean Temperature 46 °F -  
Max Temperature 50 °F - - ()
Min Temperature 39 °F - - ()
Degree Days  
Heating Degree Days 20    
Moisture  
Dew Point 31 °F    
Average Humidity 60    
Maximum Humidity 76    
Minimum Humidity 46    
Precipitation  
Precipitation 0.00 in - - ()
Sea Level Pressure  
Sea Level Pressure 29.92 in    
Wind  
Wind Speed 7 mph ()    
Max Wind Speed 12 mph    
Max Gust Speed -    
Visibility 6.2 miles    
Events      
T = Trace of Precipitation, MM = Missing Value Source: Averaged Metar Reports

Daily Weather History Graph

Daily Weather History Graph

Search for Another Location

Airport or City:

Trip Planner

Search our weather history database for the weather conditions in past years. The results will help you decide how hot, cold, wet, or windy it might be!

Date:

Astronomy

Dec. 20, 2012 Rise Set
Actual Time 7:44 AM EET 5:08 PM EET
Civil Twilight 7:14 AM EET 5:38 PM EET
Nautical Twilight 6:40 AM EET 6:12 PM EET
Astronomical Twilight 6:07 AM EET 6:45 PM EET
Moon 12:15 PM EET (12/20) 12:14 AM EET (12/20)
Length of Visible Light 10h 24m
Length of Day
9h 24m
First Quarter, 52% of the Moon is Illuminated
Dec 20
First Quarter
Dec 28
Full
Jan 5
Last Quarter
Jan 11
New
Jan 19
First Quarter

Hourly Weather History & Observations

Time (EET) Temp. Windchill Dew Point Humidity Pressure Visibility Wind Dir Wind Speed Gust Speed Precip Events Conditions
12:50 AM 46.4 °F 43.5 °F 35.6 °F 66% 29.83 in 6.2 mi West 5.8 mph - N/A   Mostly Cloudy
2:50 AM 44.6 °F 42.2 °F 33.8 °F 66% 29.86 in 6.2 mi West 4.6 mph - N/A   Mostly Cloudy
3:50 AM 42.8 °F 40.1 °F 33.8 °F 70% 29.86 in 6.2 mi NW 4.6 mph - N/A   Scattered Clouds
4:50 AM 42.8 °F 38.0 °F 30.2 °F 61% 29.86 in 6.2 mi West 8.1 mph - N/A   Mostly Cloudy
5:20 AM 42.8 °F 38.6 °F 30.2 °F 61% 29.86 in 6.2 mi WNW 6.9 mph - N/A   Mostly Cloudy
5:50 AM 41.0 °F 35.8 °F 30.2 °F 65% 29.86 in 6.2 mi West 8.1 mph - N/A   Mostly Cloudy
6:20 AM 41.0 °F 35.8 °F 30.2 °F 65% 29.86 in 6.2 mi West 8.1 mph - N/A   Mostly Cloudy
6:50 AM 41.0 °F 34.3 °F 28.4 °F 61% 29.89 in 6.2 mi West 11.5 mph - N/A   Mostly Cloudy
7:20 AM 41.0 °F 35.2 °F 28.4 °F 61% 29.89 in 6.2 mi West 9.2 mph - N/A   Mostly Cloudy
7:50 AM 41.0 °F 34.7 °F 28.4 °F 61% 29.89 in 6.2 mi West 10.4 mph - N/A   Mostly Cloudy
8:20 AM 41.0 °F 35.2 °F 28.4 °F 61% 29.92 in 6.2 mi West 9.2 mph - N/A   Mostly Cloudy
8:50 AM 41.0 °F 34.3 °F 28.4 °F 61% 29.92 in 6.2 mi West 11.5 mph - N/A   Mostly Cloudy
9:20 AM 42.8 °F 38.0 °F 28.4 °F 57% 29.92 in 6.2 mi West 8.1 mph - N/A   Mostly Cloudy
9:50 AM 42.8 °F 38.0 °F 30.2 °F 61% 29.92 in 6.2 mi West 8.1 mph - N/A   Scattered Clouds
10:20 AM 42.8 °F 37.0 °F 30.2 °F 61% 29.95 in 6.2 mi West 10.4 mph - N/A   Scattered Clouds
10:50 AM 44.6 °F 38.8 °F 28.4 °F 53% 29.95 in 6.2 mi West 11.5 mph - N/A   Scattered Clouds
11:20 AM 46.4 °F 41.1 °F 28.4 °F 50% 29.95 in 6.2 mi West 11.5 mph - N/A   Scattered Clouds
11:50 AM 46.4 °F 41.5 °F 30.2 °F 53% 29.92 in 6.2 mi West 10.4 mph - N/A   Scattered Clouds
12:20 PM 46.4 °F 41.9 °F 30.2 °F 53% 29.92 in 6.2 mi West 9.2 mph - N/A   Scattered Clouds
12:50 PM 46.4 °F 42.9 °F 28.4 °F 50% 29.92 in 6.2 mi WNW 6.9 mph - N/A   Scattered Clouds
1:20 PM 48.2 °F - 28.4 °F 46% 29.92 in 6.2 mi WNW 4.6 mph - N/A   Scattered Clouds
1:50 PM 48.2 °F - 30.2 °F 50% 29.92 in 6.2 mi WNW 4.6 mph - N/A   Scattered Clouds
2:20 PM 46.4 °F 43.5 °F 30.2 °F 53% 29.92 in 6.2 mi NW 5.8 mph - N/A   Scattered Clouds
2:50 PM 50.0 °F - 30.2 °F 47% 29.92 in 6.2 mi NNW 4.6 mph - N/A   Scattered Clouds
3:20 PM 50.0 °F - 30.2 °F 47% 29.92 in 6.2 mi NW 6.9 mph - N/A   Scattered Clouds
3:50 PM 48.2 °F - 30.2 °F 50% 29.95 in 6.2 mi West 8.1 mph - N/A   Scattered Clouds
4:20 PM 46.4 °F 42.9 °F 30.2 °F 53% 29.95 in 6.2 mi NW 6.9 mph - N/A   Scattered Clouds
4:50 PM 46.4 °F 43.5 °F 30.2 °F 53% 29.95 in 6.2 mi NW 5.8 mph - N/A   Scattered Clouds
5:20 PM 44.6 °F 42.2 °F 30.2 °F 57% 29.95 in 6.2 mi West 4.6 mph - N/A   Scattered Clouds
5:50 PM 44.6 °F 42.2 °F 33.8 °F 66% 29.95 in 6.2 mi West 4.6 mph - N/A   Scattered Clouds
6:20 PM 42.8 °F 40.1 °F 33.8 °F 70% 29.95 in 6.2 mi West 4.6 mph - N/A   Scattered Clouds
6:50 PM 41.0 °F 36.4 °F 33.8 °F 76% 29.98 in 6.2 mi West 6.9 mph - N/A   Scattered Clouds
7:20 PM 41.0 °F 37.1 °F 33.8 °F 76% 29.98 in 6.2 mi West 5.8 mph - N/A   Scattered Clouds
7:50 PM 41.0 °F 35.8 °F 33.8 °F 76% 29.98 in 6.2 mi West 8.1 mph - N/A   Scattered Clouds
8:50 PM 41.0 °F 35.8 °F 32.0 °F 70% 29.98 in 6.2 mi West 8.1 mph - N/A   Scattered Clouds
10:50 PM 39.2 °F 33.6 °F 30.2 °F 70% 29.98 in 6.2 mi West 8.1 mph - N/A   Partly Cloudy